| time (UTC) | temp F | wind direction | speed MPH | gust MPH | rain 1hr in | rain 24hr in | rain mn in | humidity % | barometer mb |
| 20260905224533 | 70 | 200 | 0.0 | 5.0 | 0.00 | 0.00 | 0.00 | 56 | 1015.4 |
| 20260905223023 | 69 | 200 | 0.0 | 6.0 | 0.00 | 0.00 | 0.00 | 58 | 1015.5 |
| 20260905221521 | 68 | 200 | 0.0 | 5.0 | 0.00 | 0.00 | 0.00 | 59 | 1015.7 |
| 20260905220021 | 69 | 200 | 0.0 | 5.0 | 0.00 | 0.01 | 0.00 | 57 | 1015.7 |
| 20260905214519 | 68 | 197 | 0.0 | 6.0 | 0.00 | 0.01 | 0.00 | 59 | 1015.9 |
| 20260905213017 | 69 | 197 | 1.0 | 6.0 | 0.00 | 0.01 | 0.00 | 62 | 1016.0 |
| 20260905211514 | 68 | 197 | 1.0 | 6.0 | 0.00 | 0.01 | 0.00 | 66 | 1016.2 |
| 20260905210013 | 67 | 197 | 1.0 | 8.0 | 0.00 | 0.02 | 0.00 | 64 | 1016.3 |
| 20260905204511 | 66 | 181 | 0.0 | 2.0 | 0.00 | 0.02 | 0.00 | 68 | 1016.3 |
| 20260905203006 | 64 | 181 | 1.0 | 5.0 | 0.00 | 0.02 | 0.00 | 71 | 1016.5 |
| 20260905201506 | 63 | 181 | 0.0 | 5.0 | 0.00 | 0.02 | 0.00 | 72 | 1016.5 |
| 20260905200002 | 63 | 181 | 0.0 | 0.0 | 0.00 | 0.02 | 0.00 | 73 | 1016.6 |
| 20260905194600 | 62 | 180 | 0.0 | 2.0 | 0.00 | 0.02 | 0.00 | 78 | 1016.7 |
| 20260905193058 | 62 | 179 | 0.0 | 4.0 | 0.00 | 0.02 | 0.00 | 78 | 1016.8 |
| 20260905191557 | 62 | 179 | 0.0 | 3.0 | 0.00 | 0.02 | 0.00 | 81 | 1016.8 |
| 20260905190057 | 61 | 179 | 0.0 | 1.0 | 0.00 | 0.03 | 0.00 | 81 | 1016.9 |
| 20260905184600 | 62 | 179 | 0.0 | 2.0 | 0.00 | 0.03 | 0.00 | 80 | 1016.9 |
| 20260905183058 | 62 | 179 | 0.0 | 4.0 | 0.00 | 0.03 | 0.00 | 83 | 1017.0 |
| 20260905181605 | 61 | 179 | 0.0 | 3.0 | 0.00 | 0.03 | 0.00 | 83 | 1017.1 |
| 20260905180050 | 60 | 179 | 0.0 | 1.0 | 0.00 | 0.03 | 0.00 | 86 | 1017.1 |
| 20260905174552 | 59 | 178 | 0.0 | 0.0 | 0.00 | 0.03 | 0.00 | 88 | 1017.2 |
| 20260905173046 | 59 | 178 | 0.0 | 0.0 | 0.00 | 0.03 | 0.00 | 89 | 1017.2 |
| 20260905171545 | 58 | 178 | 0.0 | 1.0 | 0.00 | 0.03 | 0.00 | 89 | 1017.2 |
| 20260905170042 | 58 | 178 | 0.0 | 1.0 | 0.00 | 0.03 | 0.00 | 91 | 1017.1 |
| 20260905164541 | 58 | 178 | 0.0 | 0.0 | 0.00 | 0.03 | 0.00 | 91 | 1017.1 |
| 20260905163040 | 58 | 178 | 0.0 | 1.0 | 0.00 | 0.03 | 0.00 | 91 | 1017.1 |
| 20260905161537 | 57 | 178 | 0.0 | 1.0 | 0.00 | 0.03 | 0.00 | 95 | 1017.1 |
| 20260905154532 | 55 | 178 | 0.0 | 0.0 | 0.00 | 0.03 | 0.00 | 97 | 1017.1 |
| 20260905153030 | 55 | 178 | 0.0 | 0.0 | 0.00 | 0.03 | 0.00 | 97 | 1017.2 |
| 20260905151534 | 55 | 178 | 0.0 | 0.0 | 0.00 | 0.03 | 0.00 | 98 | 1017.1 |
| 20260905150028 | 54 | 178 | 0.0 | 0.0 | 0.00 | 0.03 | 0.00 | 98 | 1017.2 |
| 20260905144525 | 54 | 178 | 0.0 | 0.0 | 0.00 | 0.03 | 0.00 | 99 | 1017.0 |
| 20260905143021 | 53 | 178 | 0.0 | 0.0 | 0.00 | 0.03 | 0.00 | 98 | 1017.0 |
| 20260905141521 | 52 | 178 | 0.0 | 0.0 | 0.00 | 0.03 | 0.00 | 98 | 1017.0 |
| 20260905140020 | 52 | 178 | 0.0 | 0.0 | 0.00 | 0.06 | 0.00 | 98 | 1016.9 |
| 20260905134518 | 52 | 178 | 0.0 | 0.0 | 0.00 | 0.06 | 0.00 | 98 | 1016.9 |
| 20260905133018 | 52 | 178 | 0.0 | 0.0 | 0.00 | 0.06 | 0.00 | 98 | 1016.8 |
| 20260905131517 | 52 | 178 | 0.0 | 0.0 | 0.00 | 0.06 | 0.00 | 98 | 1016.8 |
| 20260905130018 | 52 | 178 | 0.0 | 0.0 | 0.00 | 0.15 | 0.00 | 98 | 1016.8 |
| 20260905124514 | 52 | 178 | 0.0 | 0.0 | 0.00 | 0.15 | 0.00 | 98 | 1016.6 |
| 20260905123015 | 52 | 178 | 0.0 | 0.0 | 0.00 | 0.15 | 0.00 | 98 | 1016.6 |
| 20260905121513 | 52 | 178 | 0.0 | 0.0 | 0.00 | 0.15 | 0.00 | 97 | 1016.5 |
| 20260905120013 | 52 | 178 | 0.0 | 0.0 | 0.00 | 0.17 | 0.00 | 97 | 1016.5 |
| 20260905114513 | 52 | 178 | 0.0 | 0.0 | 0.00 | 0.17 | 0.00 | 98 | 1016.4 |
| 20260905113011 | 52 | 178 | 0.0 | 0.0 | 0.00 | 0.17 | 0.00 | 98 | 1016.4 |
| 20260905111510 | 52 | 178 | 0.0 | 0.0 | 0.00 | 0.17 | 0.00 | 98 | 1016.3 |
| 20260905110011 | 52 | 178 | 0.0 | 0.0 | 0.00 | 0.18 | 0.00 | 98 | 1016.4 |
| 20260905104508 | 52 | 178 | 0.0 | 0.0 | 0.00 | 0.18 | 0.00 | 98 | 1016.5 |
| 20260905103017 | 52 | 178 | 0.0 | 0.0 | 0.00 | 0.18 | 0.00 | 98 | 1016.5 |
| 20260905101507 | 51 | 178 | 0.0 | 0.0 | 0.00 | 0.18 | 0.00 | 98 | 1016.5 |
| 20260905100006 | 51 | 178 | 0.0 | 0.0 | 0.00 | 0.18 | 0.00 | 98 | 1016.6 |
| 20260905094509 | 51 | 178 | 0.0 | 0.0 | 0.00 | 0.18 | 0.00 | 97 | 1016.5 |
| 20260905093004 | 51 | 178 | 0.0 | 0.0 | 0.00 | 0.18 | 0.00 | 97 | 1016.5 |
| 20260905091502 | 51 | 178 | 0.0 | 0.0 | 0.00 | 0.18 | 0.00 | 97 | 1016.3 |
| 20260905090001 | 51 | 178 | 0.0 | 0.0 | 0.00 | 0.18 | 0.00 | 97 | 1016.3 |
| 20260905084608 | 51 | 178 | 0.0 | 0.0 | 0.00 | 0.18 | 0.00 | 97 | 1016.2 |
| 20260905083058 | 51 | 178 | 0.0 | 0.0 | 0.00 | 0.18 | 0.00 | 97 | 1016.2 |
| 20260905081559 | 51 | 178 | 0.0 | 0.0 | 0.00 | 0.18 | 0.00 | 97 | 1016.1 |
| 20260905080101 | 51 | 178 | 0.0 | 0.0 | 0.00 | 0.18 | 0.00 | 97 | 1016.1 |
| 20260905074559 | 51 | 178 | 0.0 | 0.0 | 0.00 | 0.18 | 0.00 | 97 | 1015.9 |
| 20260905073100 | 51 | 178 | 0.0 | 0.0 | 0.00 | 0.18 | 0.00 | 97 | 1015.9 |
| 20260905071553 | 51 | 178 | 0.0 | 0.0 | 0.00 | 0.18 | 0.00 | 96 | 1015.9 |
| 20260905070057 | 51 | 178 | 0.0 | 0.0 | 0.00 | 0.18 | 0.18 | 96 | 1015.8 |
| 20260905064549 | 52 | 178 | 0.0 | 0.0 | 0.00 | 0.18 | 0.18 | 96 | 1015.6 |
| 20260905063047 | 52 | 178 | 0.0 | 0.0 | 0.00 | 0.18 | 0.18 | 95 | 1015.6 |
| 20260905061612 | 52 | 178 | 0.0 | 0.0 | 0.00 | 0.18 | 0.18 | 95 | 1015.4 |
| 20260905060051 | 53 | 178 | 0.0 | 0.0 | 0.00 | 0.18 | 0.18 | 95 | 1015.4 |
| 20260905054545 | 53 | 178 | 0.0 | 0.0 | 0.00 | 0.18 | 0.18 | 95 | 1015.4 |
| 20260905053046 | 54 | 178 | 0.0 | 0.0 | 0.00 | 0.18 | 0.18 | 95 | 1015.5 |
| 20260905051545 | 54 | 178 | 0.0 | 0.0 | 0.00 | 0.18 | 0.18 | 94 | 1015.4 |
| 20260905050044 | 55 | 178 | 0.0 | 0.0 | 0.00 | 0.18 | 0.18 | 94 | 1015.4 |
| 20260905044544 | 55 | 178 | 0.0 | 0.0 | 0.00 | 0.18 | 0.18 | 94 | 1015.4 |
| 20260905043042 | 55 | 178 | 0.0 | 0.0 | 0.00 | 0.18 | 0.18 | 94 | 1015.4 |
| 20260905041541 | 55 | 178 | 0.0 | 0.0 | 0.00 | 0.18 | 0.18 | 94 | 1015.3 |
| 20260905040040 | 55 | 178 | 0.0 | 0.0 | 0.00 | 0.18 | 0.18 | 94 | 1015.2 |
| 20260905034547 | 55 | 178 | 0.0 | 0.0 | 0.00 | 0.18 | 0.18 | 93 | 1015.0 |
| 20260905033036 | 56 | 178 | 0.0 | 0.0 | 0.00 | 0.18 | 0.18 | 92 | 1014.8 |
| 20260905031534 | 56 | 178 | 0.0 | 0.0 | 0.00 | 0.18 | 0.18 | 91 | 1014.5 |
| 20260905030037 | 57 | 178 | 0.0 | 0.0 | 0.00 | 0.18 | 0.18 | 89 | 1014.4 |
| 20260905024531 | 58 | 178 | 0.0 | 0.0 | 0.00 | 0.18 | 0.18 | 87 | 1014.3 |
| 20260905023033 | 59 | 178 | 0.0 | 0.0 | 0.00 | 0.18 | 0.18 | 86 | 1014.3 |
| 20260905021530 | 60 | 178 | 0.0 | 0.0 | 0.00 | 0.18 | 0.18 | 84 | 1014.2 |
| 20260905020035 | 61 | 178 | 0.0 | 0.0 | 0.00 | 0.18 | 0.18 | 82 | 1014.1 |
| 20260905014535 | 61 | 178 | 0.0 | 0.0 | 0.00 | 0.18 | 0.18 | 79 | 1014.0 |
| 20260905013030 | 62 | 178 | 0.0 | 0.0 | 0.00 | 0.18 | 0.18 | 79 | 1013.8 |
| 20260905011527 | 62 | 178 | 0.0 | 1.0 | 0.00 | 0.18 | 0.18 | 79 | 1013.7 |
| 20260905010026 | 62 | 178 | 1.0 | 4.0 | 0.00 | 0.18 | 0.18 | 77 | 1013.8 |
| 20260905004537 | 62 | 178 | 0.0 | 1.0 | 0.00 | 0.18 | 0.18 | 78 | 1013.9 |
| 20260905003031 | 62 | 178 | 0.0 | 0.0 | 0.00 | 0.18 | 0.18 | 80 | 1014.0 |
| 20260905001543 | 62 | 178 | 0.0 | 0.0 | 0.00 | 0.18 | 0.18 | 79 | 1013.9 |
| 20260905000023 | 62 | 178 | 0.0 | 3.0 | 0.00 | 0.18 | 0.18 | 80 | 1013.8 |
| 20260904234532 | 63 | 178 | 0.0 | 0.0 | 0.00 | 0.18 | 0.18 | 78 | 1013.6 |
| 20260904233037 | 63 | 178 | 0.0 | 3.0 | 0.00 | 0.18 | 0.18 | 80 | 1013.4 |
| 20260904231523 | 63 | 178 | 0.0 | 5.0 | 0.00 | 0.18 | 0.18 | 80 | 1013.2 |
| 20260904230017 | 64 | 178 | 0.0 | 0.0 | 0.00 | 0.18 | 0.18 | 78 | 1013.2 |